Regional Weather Roundup
Issued by NWS Cleveland, OH

Home | Current Version | Previous Version | Graphics & Text | Print | Product List | Glossary On
Versions: 1 2 3 4 5 6 7 8 9 10 11 12 13 14 15 16 17 18 19 20 21 22 23 24 25 26 27 28 29 30 31 32 33 34 35 36 37 38 39 40 41 42 43 44 45 46 47 48 49 50
000
ASUS41 KCLE 280410
RWRCLE
OHIO REGIONAL WEATHER ROUNDUP
NATIONAL WEATHER SERVICE WILMINGTON, OH
1100 PM EST SAT DEC 27 2014

NOTE: "FAIR" INDICATES FEW OR NO CLOUDS BELOW 12,000 FEET WITH NO
SIGNIFICANT WEATHER AND/OR OBSTRUCTIONS TO VISIBILITY.

OHZ001>008-015>018-024>027-034-035-043-044-280500-
   NORTHWEST OHIO

CITY           SKY/WX    TMP DP  RH WIND       PRES   REMARKS
DEFIANCE       LGT SNOW  36  33  89 W7        30.05R FOG
FINDLAY        LGT RAIN  41  38  89 W10       30.03S
TOLEDO EXPRESS LGT RAIN  37  34  89 W16G25    30.02R
TOLEDO METCALF LGT RAIN  40  35  83 W15       30.03R
LIMA           LGT RAIN  40  36  86 W14G24    30.05R FOG
$$

OHZ009>014-019>023-028>033-038-089-280500-
   NORTHEAST OHIO

CITY           SKY/WX    TMP DP  RH WIND       PRES   REMARKS
CLE-HOPKINS    CLOUDY    47  44  90 SW12      30.02R
CLE-LAKEFRONT  CLOUDY    49  44  83 SW15      29.98S
CUY CO. ARPT   CLOUDY    50  46  87 SW13G22   29.99R
LORAIN-ELYRIA  LGT RAIN  47  45  93 W12       30.00R FOG
ASHTABULA      CLOUDY    47  42  83 SW9       29.96F
AKRON-CANTON   LGT RAIN  46  43  87 SW8       29.99S FOG
WOOSTER        RAIN      46  45  96 SW8       30.01R FOG
MANSFIELD      CLOUDY    46  45  96 SW12      30.00S
YOUNGSTOWN     CLOUDY    48  41  76 SW8       29.98F
$$

OHZ042-051>053-060>062-070>072-077>081-280500-
  SOUTHWEST OHIO

CITY           SKY/WX    TMP DP  RH WIND       PRES   REMARKS
CINC-COVINGTON LGT RAIN  48  44  86 SW6       30.08R FOG
CINC-LUNKEN    LGT RAIN  47  47 100 SW6       30.09R FOG
HAMILTON       LGT RAIN  48  47  96 SW6       30.09R FOG
DAYTON         LGT RAIN  47  45  93 W9        30.06S FOG
WRIGHT-PAT AFB LGT RAIN  47  46  99 SW9       30.05S FOG
DAYTON GENERAL LGT RAIN  47  46  97 SW8       30.06R
WILMINGTON     RAIN      46  45  96 SW10      30.05R FOG
$$

OHZ036-037-039>041-045>050-054>059-063>069-073>076-082>088-280500-
  CENTRAL AND SOUTHEAST OHIO

CITY           SKY/WX    TMP DP  RH WIND       PRES   REMARKS
COLUMBUS       LGT RAIN  47  46  97 SW8       30.04S FOG
OSU AIRPORT    LGT RAIN  47  45  93 SW9       30.03F FOG
BOLTON FIELD   DRIZZLE   47  47 100 SW9       30.04F
RICKENBACK AFB LGT RAIN  46  46  97 SW5       30.04S
NEWARK         LGT RAIN  49  46  90 SW9       30.02S FOG
MARION         CLOUDY    47  44  90 SW8       30.02F FOG
LANCASTER      CLOUDY    49  46  90 SW9       30.04F FOG
ZANESVILLE     RAIN      46  44  93 SW5       30.03R FOG
NEW PHILLY     LGT RAIN  47  44  90 SW3       30.03R
$$



USA.gov is the U.S. government's official web portal to all federal, state and local government web resources and services.